Location: Bidwell Hollow
(37.7387°N, 90.1707°W)
Time: 02:36:57
(UTC+00:00)

Explorer 7 - Visible Passes

Search period start: 14 May 2026 00:00
Search period end: 24 May 2026 00:00
Orbit: 427 x 536 km, 50.2° (Epoch: 13 May)

Date Brightness Start Highest point End Pass type
(mag) Time Alt. Az. Time Alt. Az. Time Alt. Az.
14 May 8.4 09:55:24 10° S 09:58:12 22° SE 10:01:04 10° E visible
15 May 8.4 09:28:27 13° S 09:30:30 20° SE 09:33:13 10° E visible
16 May 8.4 09:01:58 17° SSE 09:02:50 18° SE 09:05:21 10° E visible
17 May 8.6 08:35:24 16° SE 08:35:24 16° SE 08:37:26 10° E visible
17 May 6.8 10:09:38 10° WSW 10:13:04 53° NNW 10:16:38 10° NE visible
18 May 9.1 08:08:45 13° ESE 08:08:45 13° ESE 08:09:29 10° E visible
18 May 6.7 09:42:58 19° WSW 09:45:19 58° NW 09:48:53 10° NE visible
19 May 6.5 09:16:14 34° WSW 09:17:33 64° NW 09:21:07 10° NE visible
20 May 6.3 08:49:27 64° W 08:49:48 70° NW 08:53:20 10° NE visible
21 May 6.9 08:22:36 58° NNE 08:22:36 58° NNE 08:25:33 10° NE visible
21 May 8.8 09:58:22 10° WNW 10:00:47 17° NNW 10:03:15 10° NNE visible
22 May 8.0 07:55:42 33° NE 07:55:42 33° NE 07:57:45 10° NE visible
22 May 8.7 09:30:29 10° WNW 09:32:57 18° NNW 09:35:28 10° NNE visible
23 May 8.9 07:28:44 20° NE 07:28:44 20° NE 07:29:57 10° NE visible
23 May 8.7 09:02:56 12° WNW 09:05:07 18° NNW 09:07:41 10° NNE visible
